Regional Weather Roundup
Issued by NWS Charleston, WV

Home | Current Version | Previous Version | Text Only | Print | Product List | Glossary Off
Versions: 1 2 3 4 5 6 7 8 9 10 11 12 13 14 15 16 17 18 19 20 21 22 23 24 25 26 27 28 29 30 31 32 33 34 35 36 37 38 39 40 41 42 43 44 45 46 47 48 49 50

240
ASUS41 KRLX 010110
RWRRLX
West Virginia Regional Weather Roundup
National Weather Service Charleston WV
900 PM EDT SUN APR 30 2017

Note: "fair" indicates few or no clouds below 12,000 feet with no
significant weather and/or obstructions to visibility.

WVZ003-010200-
Northern Panhandle of West Virginia

CITY           SKY/WX    TMP DP  RH WIND       PRES   REMARKS
WHEELING       PTCLDY    79  55  43 S10       29.89R
$$

WVZ009-010200-
Northwest West Virginia

CITY           SKY/WX    TMP DP  RH WIND       PRES   REMARKS
PARKERSBURG    CLOUDY    79  60  52 S5        29.90S
$$

WVZ006-010200-
Western West Virginia

CITY           SKY/WX    TMP DP  RH WIND       PRES   REMARKS
HUNTINGTON     CLOUDY    81  54  39 S8        29.88R
$$

WVZ015-010200-
West Central West Virginia

CITY           SKY/WX    TMP DP  RH WIND       PRES   REMARKS
CHARLESTON     CLOUDY    82  53  36 S8        29.91S
$$

WVZ022-031-010200-
North Central West Virginia

CITY           SKY/WX    TMP DP  RH WIND       PRES   REMARKS
CLARKSBURG     PTCLDY    78  57  48 S6        29.92S
MORGANTOWN     PTCLDY    79  56  45 S3        29.92S
$$

WVZ025-035-042-045-010200-
Southern West Virginia

CITY           SKY/WX    TMP DP  RH WIND       PRES   REMARKS
BECKLEY        CLOUDY    72  51  47 S9        30.06R
LOGAN          NOT AVBL
BLUEFIELD      CLOUDY    71  52  50 S8G18     30.09S
LEWISBURG      CLOUDY    69  53  55 CALM      30.07R
$$

WVZ047-010200-
Northern Mountains of West Virginia

CITY           SKY/WX    TMP DP  RH WIND       PRES   REMARKS
ELKINS         CLEAR     76  52  43 S8G17     30.00R
$$

WVZ052-010200-
Eastern Panhandle of West Virginia

CITY           SKY/WX    TMP DP  RH WIND       PRES   REMARKS
MARTINSBURG    CLEAR     72  66  81 SE3       29.96S
PETERSBURG     CLEAR     79  60  51 S8        29.97R
$$




USA.gov is the U.S. government's official web portal to all federal, state and local government web resources and services.